Time,TemperatureF,DewpointF,PressureIn,WindDirection,WindDirectionDegrees,WindSpeedMPH,WindSpeedGustMPH,Humidity,HourlyPrecipIn,Conditions,Clouds,dailyrainin,SoftwareType,DateUTC
2014-10-01 00:00:00,54.0,52.0,30.04,NW,321,0.0,1.0,93,0.00,,,0.01,weatherlink.com 1.10,2014-10-01 04:00:00,
2014-10-01 00:15:00,53.9,52.0,30.04,NW,321,0.0,2.0,92,0.00,,,0.00,weatherlink.com 1.10,2014-10-01 04:15:00,
2014-10-01 00:30:00,53.8,52.0,30.04,SSW,213,0.0,1.0,92,0.00,,,0.00,weatherlink.com 1.10,2014-10-01 04:30:00,
2014-10-01 00:45:00,53.7,52.0,30.04,ENE,63,2.0,4.0,92,0.00,,,0.00,weatherlink.com 1.10,2014-10-01 04:45:00,
2014-10-01 01:00:00,53.7,52.0,30.05,WSW,237,1.0,4.0,92,0.00,,,0.00,weatherlink.com 1.10,2014-10-01 05:00:00,
2014-10-01 01:15:00,53.7,52.0,30.04,South,190,1.0,4.0,92,0.00,,,0.00,weatherlink.com 1.10,2014-10-01 05:15:00,
2014-10-01 01:30:00,53.8,52.0,30.05,NNE,27,1.0,4.0,92,0.00,,,0.00,weatherlink.com 1.10,2014-10-01 05:30:00,
2014-10-01 01:45:00,53.8,52.0,30.05,NNE,15,1.0,3.0,92,0.00,,,0.00,weatherlink.com 1.10,2014-10-01 05:45:00,
2014-10-01 02:00:00,53.8,52.0,30.04,NE,53,0.0,3.0,93,0.00,,,0.00,weatherlink.com 1.10,2014-10-01 06:00:00,
2014-10-01 02:15:00,53.8,52.0,30.04,East,86,0.0,3.0,93,0.00,,,0.00,weatherlink.com 1.10,2014-10-01 06:15:00,
2014-10-01 02:30:00,53.8,52.0,30.04,NE,49,2.0,3.0,92,0.00,,,0.00,weatherlink.com 1.10,2014-10-01 06:30:00,
2014-10-01 02:45:00,53.8,52.0,30.03,North,360,1.0,3.0,92,0.00,,,0.00,weatherlink.com 1.10,2014-10-01 06:45:00,
2014-10-01 03:01:00,53.7,52.0,30.03,NE,44,1.0,2.0,92,0.00,,,0.00,weatherlink.com 1.10,2014-10-01 07:01:00,
2014-10-01 03:16:00,53.7,52.0,30.03,NNE,27,3.0,4.0,92,0.00,,,0.00,weatherlink.com 1.10,2014-10-01 07:16:00,
2014-10-01 03:32:00,53.6,51.0,30.03,NNE,29,0.0,3.0,92,0.00,,,0.00,weatherlink.com 1.10,2014-10-01 07:32:00,
2014-10-01 03:46:00,53.5,51.0,30.03,East,81,0.0,2.0,92,0.00,,,0.00,weatherlink.com 1.10,2014-10-01 07:46:00,
2014-10-01 04:01:00,53.4,51.0,30.03,ENE,78,0.0,3.0,92,0.00,,,0.00,weatherlink.com 1.10,2014-10-01 08:01:00,
2014-10-01 04:16:00,53.3,51.0,30.03,East,92,2.0,3.0,92,0.00,,,0.00,weatherlink.com 1.10,2014-10-01 08:16:00,
2014-10-01 04:31:00,53.2,51.0,30.04,East,96,1.0,3.0,92,0.00,,,0.00,weatherlink.com 1.10,2014-10-01 08:31:00,
2014-10-01 04:46:00,53.1,51.0,30.04,ESE,107,1.0,6.0,91,0.00,,,0.00,weatherlink.com 1.10,2014-10-01 08:46:00,
2014-10-01 05:01:00,53.1,51.0,30.04,ENE,74,1.0,3.0,91,0.00,,,0.00,weatherlink.com 1.10,2014-10-01 09:01:00,
2014-10-01 05:16:00,52.9,50.0,30.05,ESE,108,3.0,4.0,91,0.00,,,0.00,weatherlink.com 1.10,2014-10-01 09:16:00,
2014-10-01 05:31:00,52.9,50.0,30.05,NW,321,1.0,2.0,91,0.00,,,0.00,weatherlink.com 1.10,2014-10-01 09:31:00,
2014-10-01 05:46:00,52.8,50.0,30.04,West,275,3.0,6.0,91,0.00,,,0.00,weatherlink.com 1.10,2014-10-01 09:46:00,
2014-10-01 06:01:00,52.7,50.0,30.05,East,86,1.0,4.0,91,0.00,,,0.00,weatherlink.com 1.10,2014-10-01 10:01:00,
2014-10-01 06:16:00,52.7,50.0,30.05,North,5,1.0,7.0,91,0.00,,,0.00,weatherlink.com 1.10,2014-10-01 10:16:00,
2014-10-01 06:31:00,52.7,50.0,30.06,North,360,1.0,3.0,91,0.00,,,0.00,weatherlink.com 1.10,2014-10-01 10:31:00,
2014-10-01 06:46:00,52.7,50.0,30.07,South,178,1.0,3.0,91,0.00,,,0.00,weatherlink.com 1.10,2014-10-01 10:46:00,
2014-10-01 07:01:00,52.7,50.0,30.07,NE,49,0.0,4.0,91,0.00,,,0.00,weatherlink.com 1.10,2014-10-01 11:01:00,
2014-10-01 07:16:00,52.7,50.0,30.08,East,83,1.0,5.0,91,0.00,,,0.00,weatherlink.com 1.10,2014-10-01 11:16:00,
2014-10-01 07:31:00,52.7,50.0,30.08,ENE,75,1.0,4.0,91,0.00,,,0.00,weatherlink.com 1.10,2014-10-01 11:31:00,
2014-10-01 07:46:00,52.7,50.0,30.09,SE,138,2.0,4.0,91,0.00,,,0.00,weatherlink.com 1.10,2014-10-01 11:46:00,
2014-10-01 08:01:00,52.9,50.0,30.09,NE,56,1.0,6.0,91,0.00,,,0.00,weatherlink.com 1.10,2014-10-01 12:01:00,
2014-10-01 08:16:00,53.0,51.0,30.10,North,351,0.0,8.0,91,0.00,,,0.00,weatherlink.com 1.10,2014-10-01 12:16:00,
2014-10-01 08:31:00,53.0,51.0,30.10,North,351,2.0,4.0,91,0.00,,,0.00,weatherlink.com 1.10,2014-10-01 12:31:00,
2014-10-01 08:46:00,53.0,51.0,30.11,NNE,24,1.0,3.0,91,0.00,,,0.00,weatherlink.com 1.10,2014-10-01 12:46:00,
2014-10-01 09:01:00,53.0,51.0,30.11,North,355,1.0,3.0,92,0.00,,,0.00,weatherlink.com 1.10,2014-10-01 13:01:00,
2014-10-01 09:16:00,52.9,51.0,30.11,NW,313,1.0,3.0,92,0.00,,,0.00,weatherlink.com 1.10,2014-10-01 13:16:00,
2014-10-01 09:31:00,52.8,51.0,30.11,West,263,3.0,3.0,93,0.00,,,0.00,weatherlink.com 1.10,2014-10-01 13:31:00,
2014-10-01 09:46:00,52.7,51.0,30.12,NE,48,0.0,4.0,93,0.00,,,0.00,weatherlink.com 1.10,2014-10-01 13:46:00,
2014-10-01 10:01:00,52.8,51.0,30.12,ESE,118,2.0,8.0,93,0.00,,,0.00,weatherlink.com 1.10,2014-10-01 14:01:00,
2014-10-01 10:16:00,53.1,51.0,30.12,NE,49,1.0,6.0,92,0.00,,,0.00,weatherlink.com 1.10,2014-10-01 14:16:00,
2014-10-01 10:31:00,53.3,51.0,30.12,NE,34,2.0,5.0,91,0.00,,,0.00,weatherlink.com 1.10,2014-10-01 14:31:00,
2014-10-01 10:46:00,53.5,51.0,30.12,NW,309,0.0,5.0,91,0.00,,,0.00,weatherlink.com 1.10,2014-10-01 14:46:00,
2014-10-01 11:01:00,54.0,51.0,30.12,SSE,155,2.0,6.0,90,0.00,,,0.00,weatherlink.com 1.10,2014-10-01 15:01:00,
2014-10-01 11:16:00,54.2,51.0,30.12,NE,34,0.0,6.0,90,0.00,,,0.00,weatherlink.com 1.10,2014-10-01 15:16:00,
2014-10-01 11:31:00,54.7,52.0,30.12,ESE,108,2.0,6.0,89,0.00,,,0.00,weatherlink.com 1.10,2014-10-01 15:31:00,
2014-10-01 11:46:00,55.2,52.0,30.12,West,267,1.0,3.0,88,0.00,,,0.00,weatherlink.com 1.10,2014-10-01 15:46:00,
2014-10-01 12:01:00,55.8,52.0,30.11,East,80,2.0,4.0,88,0.00,,,0.00,weatherlink.com 1.10,2014-10-01 16:01:00,
2014-10-01 12:16:00,56.1,52.0,30.11,ENE,67,4.0,7.0,86,0.00,,,0.00,weatherlink.com 1.10,2014-10-01 16:16:00,
2014-10-01 12:31:00,56.2,52.0,30.10,ENE,78,3.0,6.0,87,0.00,,,0.00,weatherlink.com 1.10,2014-10-01 16:31:00,
2014-10-01 12:46:00,56.3,52.0,30.10,NNE,26,2.0,10.0,86,0.00,,,0.00,weatherlink.com 1.10,2014-10-01 16:46:00,
2014-10-01 13:01:00,56.8,53.0,30.09,NNE,27,0.0,5.0,86,0.00,,,0.00,weatherlink.com 1.10,2014-10-01 17:01:00,
2014-10-01 13:16:00,57.4,53.0,30.09,SE,133,1.0,6.0,85,0.00,,,0.00,weatherlink.com 1.10,2014-10-01 17:16:00,
2014-10-01 13:31:00,57.3,53.0,30.09,NW,306,2.0,6.0,84,0.00,,,0.00,weatherlink.com 1.10,2014-10-01 17:31:00,
2014-10-01 13:46:00,57.4,52.0,30.09,ENE,65,1.0,6.0,83,0.00,,,0.00,weatherlink.com 1.10,2014-10-01 17:46:00,
2014-10-01 14:01:00,57.6,53.0,30.09,WSW,250,2.0,6.0,83,0.00,,,0.00,weatherlink.com 1.10,2014-10-01 18:01:00,
2014-10-01 14:17:00,58.1,52.0,30.09,NE,41,2.0,6.0,81,0.00,,,0.00,weatherlink.com 1.10,2014-10-01 18:17:00,
2014-10-01 14:32:00,58.1,52.0,30.09,NE,47,2.0,5.0,81,0.00,,,0.00,weatherlink.com 1.10,2014-10-01 18:32:00,
2014-10-01 14:47:00,57.5,52.0,30.09,ENE,77,1.0,6.0,83,0.00,,,0.00,weatherlink.com 1.10,2014-10-01 18:47:00,
2014-10-01 15:02:00,58.0,53.0,30.08,ENE,57,2.0,5.0,82,0.00,,,0.00,weatherlink.com 1.10,2014-10-01 19:02:00,
2014-10-01 15:17:00,58.1,52.0,30.08,East,88,1.0,8.0,81,0.00,,,0.00,weatherlink.com 1.10,2014-10-01 19:17:00,
2014-10-01 15:32:00,58.1,53.0,30.08,NNE,19,0.0,4.0,82,0.00,,,0.00,weatherlink.com 1.10,2014-10-01 19:32:00,
2014-10-01 15:47:00,58.0,52.0,30.08,NE,43,2.0,4.0,81,0.00,,,0.00,weatherlink.com 1.10,2014-10-01 19:47:00,
2014-10-01 16:02:00,57.7,53.0,30.08,East,80,2.0,4.0,83,0.00,,,0.00,weatherlink.com 1.10,2014-10-01 20:02:00,
2014-10-01 16:17:00,57.5,52.0,30.08,NE,53,1.0,5.0,83,0.00,,,0.00,weatherlink.com 1.10,2014-10-01 20:17:00,
2014-10-01 16:32:00,57.3,53.0,30.08,NNE,32,3.0,3.0,84,0.00,,,0.00,weatherlink.com 1.10,2014-10-01 20:32:00,
2014-10-01 16:47:00,56.9,52.0,30.08,ENE,60,1.0,6.0,83,0.00,,,0.00,weatherlink.com 1.10,2014-10-01 20:47:00,